To NAV CANADA Home Page Login to a new session Search on AWWS site Feedback and Comments Disclaimer Vers la page française équivalente Tips FAQ What's new on the site To the Forecasts and Observations / NOTAM section To "File a Flight Plan" website Publications and other links Update of the User's profile FIC Telephone Numbers My Weather Data Folder Route Weather Data Regional Weather Data Local Weather Data To the Forecasts and Observations / NOTAM section
Request Generated 06/26/2017 at 22:36:18 UTC . Weather information available at that time is displayed.

METAR/TAF

KANGIQSUJUAQ/KANGIQSUJUAQ (WAKEHAM BAY)/QC    

LWIS CYKG 262200Z AUTO 35006KT 04/03 A2952=
METAR CYKG 262100Z 03008KT 30SM FEW013 OVC032 05/02 A2950 RMK SF1SC7
LAST STFD OBS/NEXT 271200 UTC SLP002=
METAR CYKG 262000Z 02011G17KT 10SM FEW014 OVC044 05/03 A2948 RMK
SF1SC7 SLP993=

*** REMARK        : Forecast period has ended; this was the last TAF issued
*** REMARQUE : La période de prévision est échue; ceci était le dernier TAF qui a été émis
TAF AMD CYKG 262029Z 2620/2621 02010G20KT P6SM OVC050
RMK NXT FCST WILL BE ISSUED AT 271345Z=
Your time UTC time
Weather data provided by Environment Canada and NAV CANADA